Location: Pasarilla del Rebollar
(40.6790°N, 5.0062°W)
Time: 11:23:33
(UTC+00:00)

Meteor 1-11 Rocket - Pass Details

Date: 22 April 2026
Orbit: 830 x 914 km, 81.2° (Epoch: 15 May)

Event Time Altitude Azimuth Distance (km) Brightness Sun altitude
Rises 03:00:58 0° 350° (N) 3,533 7.4 -25.2°
Reaches altitude 10° 03:03:27 10° 350° (N) 2,579 6.6 -24.8°
Maximum altitude 03:09:21 88° 265° (W) 890 3.7 -24.0°
Enters shadow 03:11:38 39° 174° (S) 1,290 4.3 -23.7°
